This is the latest recevied weather packets stored in our database for station/object WD7CGF. If no packets are shown the sender has not sent any weather packets the latest 10 day(s).
| Time | Temp. | Humidity | Pressure | Rain* | Wind** | Luminosity | Snow |
|---|---|---|---|---|---|---|---|
| 1787450920 | 23.89° C | 47% | 1010.6 hPa | 0 mm | - | - | - |
| 1787450312 | 24.44° C | 47% | 1010.5 hPa | 0 mm | - | - | - |
| 1787449724 | 24.44° C | 46% | 1010.5 hPa | 0 mm | - | - | - |
| 1787449118 | 25° C | 44% | 1010.5 hPa | 0 mm | - | - | - |
| 1787448531 | 25° C | 44% | 1010.2 hPa | 0 mm | - | - | - |
| 1787447926 | 25.56° C | 43% | 1010.2 hPa | 0 mm | - | - | - |
| 1787447319 | 25.56° C | 41% | 1010.5 hPa | 0 mm | - | - | - |
| 1787446712 | 25.56° C | 40% | 1010.5 hPa | 0 mm | - | - | - |
| 1787446125 | 26.11° C | 40% | 1010.5 hPa | 0 mm | - | - | - |
| 1787445519 | 26.11° C | 40% | 1010.5 hPa | 0 mm | - | - | - |
| 1787444931 | 26.11° C | 41% | 1010.6 hPa | 0 mm | - | - | - |
| 1787444322 | 26.11° C | 40% | 1010.6 hPa | 0 mm | - | - | - |
| 1787443715 | 26.11° C | 43% | 1010.6 hPa | 0 mm | - | - | - |
| 1787443112 | 25.56° C | 43% | 1011 hPa | 0 mm | - | - | - |
| 1787442526 | 25° C | 44% | 1011 hPa | 0 mm | - | - | - |
| 1787441919 | 25° C | 41% | 1010.7 hPa | 0 mm | - | - | - |
| 1787441314 | 25.56° C | 40% | 1010.5 hPa | 0 mm | - | - | - |
| 1787440725 | 26.11° C | 37% | 1010.5 hPa | 0 mm | - | - | - |
| 1787440117 | 26.67° C | 38% | 1011.4 hPa | 0 mm | - | - | - |
| 1787439511 | 26.67° C | 38% | 1011.1 hPa | 0 mm | - | - | - |
| 1787438924 | 26.67° C | 36% | 1011.1 hPa | 0 mm | - | - | - |
| 1787438321 | 26.67° C | 40% | 1011.4 hPa | 0 mm | - | - | - |
| 1787437715 | 27.22° C | 42% | 1011.5 hPa | 0 mm | - | - | - |
| 1787437127 | 27.22° C | 43% | 1011.5 hPa | 0 mm | - | - | - |
| 1787436519 | 27.78° C | 44% | 1011.5 hPa | 0 mm | - | - | - |
* Rain latest hour (hover to see other rain measurements)
** Current wind speed in m/s (hover to see current wind gust speed)